Location: Northcutt
(34.7304°N, 84.4305°W)
Time: 11:20:22
(UTC+00:00)

A-11 Canister half - Pass Details

Date: 05 October 2022
Orbit: 1524 x 1685 km, 47.3° (Epoch: 30 November)

Event Time Altitude Azimuth Distance (km) Brightness Sun altitude
Rises 05:10:36 0° 291° (WNW) 4,777 11.8 -59.8°
Enters shadow 05:11:45 - 287° (WNW) 4,499 11.6 -59.8°
Reaches altitude 10° 05:15:01 10° 273° (W) 3,819 - -59.9°
Maximum altitude 05:20:49 18° 236° (SW) 3,276 - -60.0°
Drops below altitude 10° 05:26:44 10° 198° (SSW) 3,885 - -60.0°
Sets 05:31:21 0° 181° (S) 4,892 - -60.0°
